George, South Africa

1:54 AM SAST on August 25, 2016 (GMT +0200)
George

Weather History for FAGG - June, 2013

Change the Weather History Date:

Tuesday, June 18, 2013

  Actual Average Record
Temperature  
Mean Temperature 62 °F -  
Max Temperature 80 °F 64 °F 80 °F (2013)
Min Temperature 45 °F 44 °F 40 °F (2015)
Degree Days  
Heating Degree Days 2    
Growing Degree Days 12 (Base 50)    
Moisture  
Dew Point 35 °F    
Average Humidity 23    
Maximum Humidity 35    
Minimum Humidity 13    
Precipitation  
Precipitation 0.00 in - - ()
Sea Level Pressure  
Sea Level Pressure 29.91 in    
Wind  
Wind Speed 12 mph ()    
Max Wind Speed 31 mph    
Max Gust Speed 44 mph    
Visibility 12.0 miles    
Events      
Averages and records for this station are not official NWS values.
T = Trace of Precipitation, MM = Missing Value Source: Averaged Metar Reports

Daily Weather History Graph

Daily Weather History Graph

Search for Another Location

Airport or City:

Trip Planner

Search our weather history database for the weather conditions in past years. The results will help you decide how hot, cold, wet, or windy it might be!

Date:

Astronomy

Jun. 18, 2013 Rise Set
Actual Time 7:34 AM SAST 5:28 PM SAST
Civil Twilight 7:07 AM SAST 5:56 PM SAST
Nautical Twilight 6:35 AM SAST 6:27 PM SAST
Astronomical Twilight 6:05 AM SAST 6:57 PM SAST
Moon 1:24 PM SAST (6/18) 1:46 AM SAST (6/18)
Length of Visible Light 10h 48m
Length of Day
9h 53m
Waxing Gibbous, 68% of the Moon is Illuminated
Jun 18
Waxing Gibbous
Jun 23
Full
Jun 30
Last Quarter
Jul 8
New
Jul 16
First Quarter

Hourly Weather History & Observations

Time (SAST) Temp. Dew Point Humidity Pressure Visibility Wind Dir Wind Speed Gust Speed Precip Events Conditions
12:00 AM 64.4 °F 33.8 °F 32% 30.12 in - North 10.4 mph - N/A   Clear
1:00 AM 64.4 °F 30.2 °F 28% 30.12 in - NNW 4.6 mph - N/A   Clear
2:00 AM 67 °F 29 °F 14% 30.09 in 44 mi 3.5 mph - -  
2:00 AM 64.4 °F 30.2 °F 28% 30.09 in - Variable 2.3 mph - N/A   Clear
3:00 AM 64.4 °F 28.4 °F 26% 30.09 in - SSE 3.5 mph - N/A   Clear
4:00 AM 66.2 °F 28.4 °F 24% 30.06 in - Variable 4.6 mph - N/A   Clear
5:00 AM 68 °F 28 °F 13% 30.06 in 12 mi West 5.8 mph - -  
5:00 AM 68.0 °F 28.4 °F 23% 30.04 in - West 5.8 mph - N/A   Clear
6:00 AM 66.2 °F 30.2 °F 26% 30.04 in - WNW 4.6 mph - N/A   Clear
7:00 AM 69.8 °F 32.0 °F 25% 30.01 in - North 16.1 mph - N/A   Clear
8:00 AM 70 °F 31 °F 14% 30.01 in 12 mi NNW 13.8 mph - -  
8:00 AM 69.8 °F 32.0 °F 25% 30.01 in - NNW 13.8 mph 25.3 mph N/A   Clear
9:00 AM 71.6 °F 32.0 °F 23% 29.98 in - NNW 15.0 mph - N/A   Clear
10:00 AM 73.4 °F 33.8 °F 23% 29.95 in - North 25.3 mph 38.0 mph N/A   Clear
11:00 AM 76 °F 37 °F 14% 29.93 in 12 mi North 27.6 mph - -  
12:00 PM 77.0 °F 39.2 °F 26% 29.89 in - North 25.3 mph 40.3 mph N/A   Clear
1:00 PM 78.8 °F 39.2 °F 24% 29.86 in - NNW 25.3 mph 39.1 mph N/A   Clear
2:00 PM 80 °F 39 °F 14% 29.77 in 12 mi NNW 31.1 mph - -   Scattered Clouds
2:00 PM 78.8 °F 39.2 °F 24% 29.80 in - NNW 31.1 mph 43.7 mph N/A   Clear
3:00 PM 80.6 °F 39.2 °F 23% 29.77 in - NNW 24.2 mph 38.0 mph N/A   Clear
4:00 PM 78.8 °F 39.2 °F 24% 29.74 in - North 24.2 mph 39.1 mph N/A   Clear
5:00 PM 78 °F 40 °F 15% 29.73 in 12 mi North 23.0 mph - -  
5:00 PM 78.8 °F 39.2 °F 24% 29.74 in - North 24.2 mph - N/A   Clear
6:00 PM 77.0 °F 41.0 °F 28% 29.77 in - NW 18.4 mph - N/A   Clear
7:00 PM 77.0 °F 39.2 °F 26% 29.77 in - North 21.9 mph - N/A   Clear
8:00 PM 78 °F 39 °F 15% 29.76 in 12 mi North 17.3 mph - -   Clear
8:00 PM 78.8 °F 39.2 °F 24% 29.77 in - North 18.4 mph 29.9 mph N/A   Clear
9:00 PM 73.4 °F 39.2 °F 29% 29.77 in - NW 16.1 mph - N/A   Clear
10:00 PM 75.2 °F 41.0 °F 29% 29.80 in - NW 18.4 mph - N/A   Clear
11:00 PM 69.8 °F 41.0 °F 35% 29.83 in - West 9.2 mph - N/A   Clear